Location: Berkeley
(37.8716°N, 122.2727°W)
Time: 07:49:21
(UTC-07:00)

Tiangong 2 - Visible Passes

Search period start: 23 May 2017 00:00
Search period end: 02 June 2017 00:00
Orbit: 380 x 389 km, 42.8° (Epoch: 22 May)

Date Brightness Start Highest point End Pass type
(mag) Time Alt. Az. Time Alt. Az. Time Alt. Az.
23 May 1.5 21:11:16 10° SW 21:14:16 40° SSE 21:17:16 10° E visible
23 May 2.6 22:47:56 10° W 22:50:11 35° WNW 22:50:11 35° WNW visible
24 May 1.4 21:48:11 10° WSW 21:51:20 67° NNW 21:54:09 12° ENE visible
24 May 3.9 23:25:29 10° WNW 23:26:24 16° WNW 23:26:24 16° WNW visible
25 May 1.0 20:48:34 10° WSW 20:51:43 73° SSE 20:54:53 10° ENE visible
25 May 2.6 22:25:39 10° WNW 22:28:37 35° N 22:29:58 24° NE visible
26 May 2.2 21:25:49 10° W 21:28:54 45° NNW 21:31:58 10° ENE visible
26 May 3.0 23:03:07 10° WNW 23:05:29 30° NNW 23:05:29 30° NNW visible
27 May 2.8 22:03:20 10° WNW 22:06:14 32° N 22:08:35 14° ENE visible
27 May 4.2 23:40:16 10° WNW 23:40:48 14° WNW 23:40:48 14° WNW visible
28 May 2.6 21:03:29 10° WNW 21:06:28 35° N 21:09:26 10° ENE visible
28 May 2.4 22:40:38 10° WNW 22:43:37 36° N 22:43:49 36° NNE visible
29 May 2.7 21:40:55 10° WNW 21:43:50 32° N 21:46:44 10° ENE visible
29 May 3.5 23:17:41 10° WNW 23:18:57 22° WNW 23:18:57 22° WNW visible
30 May 1.9 22:18:03 10° WNW 22:21:09 47° NNE 22:21:52 38° ENE visible
31 May 2.4 21:18:24 10° WNW 21:21:23 36° N 21:24:22 10° ENE visible
31 May 2.7 22:55:07 10° WNW 22:56:57 31° W 22:56:57 31° W visible
01 Jun 1.2 21:55:26 10° WNW 21:58:37 71° NNE 21:59:50 33° E visible
